| time (UTC) | temp F | wind direction | speed MPH | gust MPH | rain 1hr in | rain 24hr in | rain mn in | humidity % | barometer mb |
| 20260505235845 | 27 | 0.0 | 0.0 | 0.00 | 0.00 | 0.00 | 87 | 1008.1 | |
| 20260505233745 | 29 | 0.0 | 0.0 | 0.00 | 0.00 | 0.00 | 83 | 1008.0 | |
| 20260505231645 | 30 | 0.0 | 0.0 | 0.00 | 0.00 | 0.00 | 79 | 1008.0 | |
| 20260505225545 | 30 | 0.0 | 0.0 | 0.00 | 0.00 | 0.00 | 80 | 1007.8 | |
| 20260505223444 | 31 | 0.0 | 0.0 | 0.00 | 0.00 | 0.00 | 77 | 1007.7 | |
| 20260505221344 | 30 | 0.0 | 0.0 | 0.00 | 0.00 | 0.00 | 79 | 1007.7 | |
| 20260505215245 | 32 | 0.0 | 0.0 | 0.00 | 0.00 | 0.00 | 73 | 1007.3 | |
| 20260505213144 | 32 | 0.0 | 0.0 | 0.00 | 0.00 | 0.00 | 72 | 1007.3 | |
| 20260505204944 | 33 | 0.0 | 0.0 | 0.00 | 0.00 | 0.00 | 72 | 1006.9 | |
| 20260505202844 | 33 | 0.0 | 0.0 | 0.00 | 0.00 | 0.00 | 70 | 1006.9 | |
| 20260505200744 | 34 | 0.0 | 0.0 | 0.00 | 0.00 | 0.00 | 67 | 1006.7 | |
| 20260505194644 | 35 | 0.0 | 0.0 | 0.00 | 0.00 | 0.00 | 62 | 1006.5 | |
| 20260505192544 | 37 | 0.0 | 0.0 | 0.00 | 0.00 | 0.00 | 58 | 1006.3 | |
| 20260505190444 | 40 | 0.0 | 0.0 | 0.00 | 0.00 | 0.00 | 51 | 1006.1 | |
| 20260505184344 | 43 | 0.0 | 0.0 | 0.00 | 0.00 | 0.00 | 42 | 1006.0 | |
| 20260505182244 | 44 | 0.0 | 0.0 | 0.00 | 0.00 | 0.00 | 41 | 1005.8 | |
| 20260505180144 | 45 | 0.0 | 0.0 | 0.00 | 0.00 | 0.00 | 37 | 1005.5 | |
| 20260505171944 | 47 | 0.0 | 0.0 | 0.00 | 0.00 | 0.00 | 39 | 1005.0 | |
| 20260505165844 | 48 | 0.0 | 0.0 | 0.00 | 0.00 | 0.00 | 36 | 1004.9 | |
| 20260505163744 | 56 | 0.0 | 0.0 | 0.00 | 0.00 | 0.00 | 26 | 1004.8 | |
| 20260505161644 | 54 | 0.0 | 0.0 | 0.00 | 0.00 | 0.00 | 30 | 1004.9 | |
| 20260505151344 | 47 | 0.0 | 0.0 | 0.00 | 0.00 | 0.00 | 44 | 1004.8 | |
| 20260505124643 | 51 | 0.0 | 0.0 | 0.00 | 0.00 | 0.00 | 50 | 1004.5 | |
| 20260505122543 | 51 | 0.0 | 0.0 | 0.00 | 0.00 | 0.00 | 46 | 1004.5 | |
| 20260505120443 | 49 | 0.0 | 0.0 | 0.00 | 0.00 | 0.00 | 53 | 1004.3 | |
| 20260505114343 | 45 | 0.0 | 0.0 | 0.00 | 0.00 | 0.00 | 53 | 1004.3 | |
| 20260505110143 | 51 | 0.0 | 0.0 | 0.00 | 0.00 | 0.00 | 38 | 1003.7 | |
| 20260505101943 | 52 | 0.0 | 0.0 | 0.00 | 0.00 | 0.00 | 37 | 1003.5 | |
| 20260505095843 | 56 | 0.0 | 0.0 | 0.00 | 0.00 | 0.00 | 38 | 1003.4 | |
| 20260505093743 | 54 | 0.0 | 0.0 | 0.00 | 0.00 | 0.00 | 40 | 1003.4 | |
| 20260505091643 | 58 | 0.0 | 0.0 | 0.00 | 0.00 | 0.00 | 35 | 1003.3 | |
| 20260505085543 | 57 | 0.0 | 0.0 | 0.00 | 0.00 | 0.00 | 33 | 1003.2 | |
| 20260505083443 | 49 | 0.0 | 0.0 | 0.00 | 0.00 | 0.00 | 43 | 1003.1 | |
| 20260505081343 | 54 | 0.0 | 0.0 | 0.00 | 0.00 | 0.00 | 42 | 1003.0 | |
| 20260505075243 | 52 | 0.0 | 0.0 | 0.00 | 0.00 | 0.00 | 45 | 1002.9 | |
| 20260505073143 | 51 | 0.0 | 0.0 | 0.00 | 0.00 | 0.00 | 49 | 1002.7 | |
| 20260505064943 | 48 | 0.0 | 0.0 | 0.00 | 0.00 | 0.00 | 53 | 1002.4 | |
| 20260505062843 | 46 | 0.0 | 0.0 | 0.00 | 0.00 | 0.00 | 57 | 1002.4 | |
| 20260505060743 | 45 | 0.0 | 0.0 | 0.00 | 0.00 | 0.00 | 61 | 1002.2 | |
| 20260505054643 | 42 | 0.0 | 0.0 | 0.00 | 0.00 | 0.00 | 69 | 1002.1 | |
| 20260505052543 | 39 | 0.0 | 0.0 | 0.00 | 0.00 | 0.00 | 79 | 1002.0 | |
| 20260505050443 | 37 | 0.0 | 0.0 | 0.00 | 0.00 | 0.00 | 91 | 1001.8 | |
| 20260505040143 | 36 | 0.0 | 0.0 | 0.00 | 0.00 | 0.00 | 10 | 1001.3 | |
| 20260505034043 | 35 | 0.0 | 0.0 | 0.00 | 0.00 | 0.00 | 10 | 1001.1 | |
| 20260505031943 | 34 | 0.0 | 0.0 | 0.00 | 0.00 | 0.00 | 10 | 1000.8 | |
| 20260505025842 | 32 | 0.0 | 0.0 | 0.00 | 0.00 | 0.00 | 10 | 1000.7 | |
| 20260505023743 | 33 | 0.0 | 0.0 | 0.00 | 0.00 | 0.00 | 10 | 1000.6 | |
| 20260505021642 | 34 | 0.0 | 0.0 | 0.00 | 0.00 | 0.00 | 10 | 1000.5 | |
| 20260505015542 | 34 | 0.0 | 0.0 | 0.00 | 0.00 | 0.00 | 99 | 1000.4 | |
| 20260505013442 | 36 | 0.0 | 0.0 | 0.00 | 0.00 | 0.00 | 98 | 1000.1 | |
| 20260505011342 | 37 | 0.0 | 0.0 | 0.00 | 0.00 | 0.00 | 99 | 1000.1 | |
| 20260505005242 | 37 | 0.0 | 0.0 | 0.00 | 0.00 | 0.00 | 99 | 999.9 | |
| 20260505003142 | 37 | 0.0 | 0.0 | 0.00 | 0.00 | 0.00 | 98 | 999.8 |